FENGYUN 1C DEB, 36272

Orbit data source: Space-Track

FENGYUN 1C DEB, 36272 is space debris in SSO originally from a launch on Mon, 10 May 1999 UTC launched from the Taiyaun Space Center, China (TSC). Fengyun 1C debris stems from the Chinese weather satellite Fengyun-1C, which was intentionally destroyed by a Chinese anti-satellite missile in 2007. This event dramatically increased the amount of space debris, with thousands of trackable fragments posing hazards to satellites and human spaceflight. The Fengyun 1C debris cloud has become a focal point in discussions about space sustainability and the need for international regulations to prevent the creation of new debris.

Loading next visibility...
Identifier
36272, 1999-025DWZ
Orbit
SSO
Country
Flag of CNCN / PRC
Related business
Manufacturer
Unknown
Mission
Spacecraft
Bus & Motor
Unknown
Mass
Unknown
Launch date (UTC)
1999-05-10 (27 years ago)
Launch vehicle
Unknown
Launch site
Taiyaun Space Center, China (TSC)
Object type
Payload
Rocket body
Debris
Shape & HBR
Unknown shape, 0.1 m
Radar Cross Section
Small (<0.1 m²)

Expand to show TLE details & history
Last TLE update: 3 days ago

TLE from 3 days ago
0 FENGYUN 1C DEB
1 36272U 99025DWZ 26234.41211446  .00000404  00000-0  19391-3 0  9999
2 36272  99.1069 122.5469 0166980 271.8676  86.3381 14.17663273671960
Epoch: 2026-08-22T09:53Z
TLE epoch observation values (Epoch: 2026-08-22T09:53:26.689Z)
Latitude
-0.00007°
Longitude
3.46281°
Altitude
830.479 km
Speed
7.441 km/s
True Right ascension
08h 10m 11s
True Declination
0° 00' 00"
Sunlit
Object was in daylight at epoch
Visualization orbit readout
Latitude
Unknown
Longitude
Unknown
Altitude
Unknown
Speed
Unknown
Apparent Right ascension
Unknown
Apparent Declination
Unknown
Sunlit
N/A
Visualization observer readout
Local Sidereal Time
13:15:06
Azimuth
Unknown
Elevation
Unknown
Doppler factor
Unknown
Orbital elements
Apogee altitude
950.815 km
Perigee altitude
710.077 km
Semi-major axis
7,208.583 km
Eccentricity
0.0167
Inclination
99.1069°
RAAN
122.5469°
Arg. of periapsis
271.8676°
True anomaly
88.24984°
Mean anomaly
86.3381°
Eccentric anomaly
87.29376°
Mean motion
3.54624 °/min
Orbital period
101.52 mins
BSTAR
0.00019391
Loading maneuver chart data...
Computing Atmospheric mass density...
Loading historical data...
Loading historical data...
Loading historical data...
Loading historical data...
Loading historical data...
Loading historical data...
Loading historical data...

Documentation

Showing up to 5 results
|